Location: Unspecified
(58.9933°N, 5.6375°E)
Time: 21:06:48
(UTC+01:00)

Okean 3 - Visible Passes

Search period start: 24 November 2014 00:00
Search period end: 04 December 2014 00:00
Orbit: 581 x 610 km, 82.5° (Epoch: 24 November)

Date Brightness Start Highest point End Pass type
(mag) Time Alt. Az. Time Alt. Az. Time Alt. Az.
24 Nov 3.7 17:03:50 10° S 17:07:57 51° E 17:12:05 10° NNE visible
24 Nov 5.4 18:41:53 10° WSW 18:45:35 28° WNW 18:49:18 10° N visible
25 Nov 3.4 17:13:40 10° S 17:17:54 72° E 17:22:07 10° NNE visible
25 Nov 5.8 18:52:25 10° WSW 18:55:45 22° WNW 18:59:05 10° N visible
26 Nov 3.5 17:23:37 10° SSW 17:27:52 83° WNW 17:32:07 10° NNE visible
26 Nov 6.1 19:03:07 10° W 19:05:57 17° NW 19:08:47 10° NNW visible
27 Nov 4.0 17:33:40 10° SSW 17:37:52 60° WNW 17:42:04 10° N visible
27 Nov 6.3 19:14:04 10° W 19:16:12 13° NW 19:18:19 10° NNW visible
28 Nov 4.6 17:43:51 10° SW 17:47:55 44° WNW 17:51:58 10° N visible
28 Nov 6.5 19:25:36 10° WNW 19:26:28 11° NW 19:27:21 10° NNW visible
29 Nov 5.1 17:54:09 10° SW 17:57:59 32° WNW 18:01:50 10° N visible
30 Nov 5.6 18:04:35 10° WSW 18:08:06 25° WNW 18:11:38 10° N visible
01 Dec 3.5 16:36:03 10° S 16:40:17 84° ESE 16:44:31 10° NNE visible
01 Dec 5.9 18:15:10 10° WSW 18:18:15 19° WNW 18:21:21 10° N visible
02 Dec 3.8 16:46:02 10° SSW 16:50:15 71° WNW 16:54:28 10° N visible
02 Dec 6.1 18:25:56 10° W 18:28:27 15° NW 18:30:57 10° NNW visible
03 Dec 4.3 16:56:07 10° SSW 17:00:14 51° WNW 17:04:22 10° N visible
03 Dec 6.3 18:37:02 10° WNW 18:38:40 12° NW 18:40:18 10° NNW visible
